Location: �chenoz-la-M�line
(47.6009°N, 6.1354°E)
Time: 12:39:12
(UTC+00:00)

Cosmos 1315 Rocket - Pass Details

Date: 27 January 2021
Orbit: 530 x 567 km, 81.2° (Epoch: 02 March)

Event Time Altitude Azimuth Distance (km) Brightness Sun altitude
Rises 05:44:35 0° 198° (SSW) 2,660 6.3 -14.1°
Reaches altitude 10° 05:46:44 10° 202° (SSW) 1,774 5.3 -13.7°
Maximum altitude 05:50:36 62° 283° (WNW) 604 2.7 -13.1°
Drops below altitude 10° 05:54:30 10° 5° (N) 1,793 5.3 -12.4°
Sets 05:56:42 0° 9° (N) 2,692 6.3 -12.1°
